| time (UTC) | temp F | wind direction | speed MPH | gust MPH | rain 1hr in | rain 24hr in | rain mn in | humidity % | barometer mb |
| 20260508181543 | 56 | 74 | 7.0 | 12.0 | 0.00 | 0.00 | 0.00 | 59 | 1001.5 |
| 20260508180041 | 56 | 30 | 5.0 | 12.0 | 0.00 | 0.00 | 0.00 | 57 | 1001.6 |
| 20260508174557 | 56 | 27 | 5.0 | 11.0 | 0.00 | 0.00 | 0.00 | 59 | 1001.6 |
| 20260508173040 | 58 | 30 | 3.0 | 13.0 | 0.00 | 0.00 | 0.00 | 60 | 1001.8 |
| 20260508171537 | 57 | 28 | 6.0 | 16.0 | 0.00 | 0.00 | 0.00 | 57 | 1001.6 |
| 20260508170036 | 59 | 19 | 4.0 | 10.0 | 0.00 | 0.00 | 0.00 | 53 | 1001.5 |
| 20260508164529 | 58 | 103 | 5.0 | 10.0 | 0.00 | 0.00 | 0.00 | 52 | 1001.4 |
| 20260508163039 | 59 | 51 | 5.0 | 10.0 | 0.00 | 0.00 | 0.00 | 55 | 1001.5 |
| 20260508161624 | 58 | 349 | 5.0 | 10.0 | 0.00 | 0.00 | 0.00 | 49 | 1001.7 |
| 20260508160024 | 57 | 57 | 3.0 | 13.0 | 0.00 | 0.00 | 0.00 | 60 | 1001.7 |
| 20260508154520 | 57 | 18 | 5.0 | 13.0 | 0.00 | 0.00 | 0.00 | 58 | 1001.7 |
| 20260508153026 | 57 | 10 | 6.0 | 14.0 | 0.00 | 0.00 | 0.00 | 57 | 1001.8 |
| 20260508151523 | 57 | 42 | 4.0 | 11.0 | 0.00 | 0.00 | 0.00 | 63 | 1001.9 |
| 20260508150013 | 57 | 97 | 2.0 | 8.0 | 0.00 | 0.00 | 0.00 | 61 | 1001.7 |
| 20260508144509 | 56 | 35 | 3.0 | 10.0 | 0.00 | 0.00 | 0.00 | 61 | 1002.2 |
| 20260508143007 | 55 | 16 | 3.0 | 10.0 | 0.00 | 0.00 | 0.00 | 63 | 1002.2 |
| 20260508141506 | 55 | 29 | 4.0 | 11.0 | 0.00 | 0.00 | 0.00 | 64 | 1002.5 |
| 20260508140003 | 54 | 10 | 6.0 | 10.0 | 0.00 | 0.00 | 0.00 | 66 | 1002.7 |
| 20260508134501 | 54 | 360 | 4.0 | 10.0 | 0.00 | 0.00 | 0.00 | 69 | 1002.7 |
| 20260508133106 | 54 | 100 | 1.0 | 9.0 | 0.00 | 0.00 | 0.00 | 68 | 1002.4 |
| 20260508131558 | 53 | 84 | 4.0 | 9.0 | 0.00 | 0.00 | 0.00 | 69 | 1002.4 |
| 20260508130105 | 52 | 44 | 3.0 | 8.0 | 0.00 | 0.00 | 0.00 | 70 | 1002.3 |
| 20260508124548 | 51 | 135 | 1.0 | 8.0 | 0.00 | 0.00 | 0.00 | 73 | 1002.2 |
| 20260508123045 | 50 | 360 | 1.0 | 6.0 | 0.00 | 0.00 | 0.00 | 74 | 1002.6 |
| 20260508121542 | 49 | 5 | 2.0 | 5.0 | 0.00 | 0.00 | 0.00 | 77 | 1002.6 |
| 20260508120043 | 48 | 12 | 0.0 | 6.0 | 0.00 | 0.00 | 0.00 | 80 | 1002.8 |
| 20260508114538 | 46 | 351 | 2.0 | 4.0 | 0.00 | 0.00 | 0.00 | 87 | 1002.8 |
| 20260508113048 | 44 | 228 | 0.0 | 2.0 | 0.00 | 0.00 | 0.00 | 89 | 1002.8 |
| 20260508111537 | 43 | 228 | 0.0 | 0.0 | 0.00 | 0.00 | 0.00 | 90 | 1003.2 |
| 20260508110050 | 43 | 228 | 0.0 | 2.0 | 0.00 | 0.00 | 0.00 | 90 | 1003.2 |
| 20260508104536 | 42 | 228 | 0.0 | 1.0 | 0.00 | 0.00 | 0.00 | 90 | 1003.2 |
| 20260508103038 | 41 | 228 | 0.0 | 1.0 | 0.00 | 0.00 | 0.00 | 90 | 1003.2 |
| 20260508101537 | 41 | 228 | 0.0 | 1.0 | 0.00 | 0.00 | 0.00 | 89 | 1003.0 |
| 20260508100036 | 40 | 228 | 0.0 | 2.0 | 0.00 | 0.00 | 0.00 | 89 | 1002.4 |
| 20260508094530 | 40 | 228 | 0.0 | 2.0 | 0.00 | 0.00 | 0.00 | 89 | 1002.7 |
| 20260508093043 | 40 | 228 | 0.0 | 2.0 | 0.00 | 0.00 | 0.00 | 88 | 1002.5 |
| 20260508091531 | 40 | 229 | 0.0 | 2.0 | 0.00 | 0.00 | 0.00 | 88 | 1002.5 |
| 20260508090031 | 40 | 229 | 0.0 | 1.0 | 0.00 | 0.00 | 0.00 | 88 | 1002.4 |
| 20260508084524 | 41 | 228 | 0.0 | 3.0 | 0.00 | 0.00 | 0.00 | 87 | 1001.8 |
| 20260508083025 | 41 | 229 | 0.0 | 0.0 | 0.00 | 0.00 | 0.00 | 87 | 1001.9 |
| 20260508081520 | 42 | 229 | 0.0 | 0.0 | 0.00 | 0.00 | 0.00 | 86 | 1001.7 |
| 20260508080032 | 43 | 229 | 0.0 | 0.0 | 0.00 | 0.00 | 0.00 | 86 | 1001.7 |
| 20260508074516 | 44 | 229 | 0.0 | 2.0 | 0.00 | 0.00 | 0.00 | 86 | 1002.0 |
| 20260508073013 | 45 | 229 | 2.0 | 7.0 | 0.00 | 0.00 | 0.00 | 86 | 1001.9 |
| 20260508071509 | 45 | 270 | 3.0 | 9.0 | 0.00 | 0.00 | 0.00 | 86 | 1002.1 |
| 20260508070007 | 46 | 350 | 0.0 | 8.0 | 0.00 | 0.00 | 0.00 | 86 | 1002.0 |
| 20260508064510 | 46 | 158 | 0.0 | 3.0 | 0.00 | 0.00 | 0.00 | 86 | 1001.9 |
| 20260508063004 | 46 | 157 | 1.0 | 7.0 | 0.00 | 0.00 | 0.00 | 86 | 1002.0 |
| 20260508061503 | 46 | 145 | 3.0 | 8.0 | 0.00 | 0.00 | 0.00 | 86 | 1001.8 |
| 20260508054638 | 46 | 164 | 1.0 | 7.0 | 0.00 | 0.00 | 0.00 | 85 | 1001.9 |
| 20260508053056 | 47 | 203 | 1.0 | 8.0 | 0.00 | 0.00 | 0.00 | 85 | 1002.2 |
| 20260508051553 | 47 | 276 | 1.0 | 13.0 | 0.00 | 0.00 | 0.00 | 85 | 1001.9 |
| 20260508050053 | 47 | 25 | 1.0 | 8.0 | 0.00 | 0.00 | 0.00 | 85 | 1001.8 |
| 20260508044600 | 48 | 107 | 0.0 | 6.0 | 0.00 | 0.00 | 0.00 | 85 | 1002.0 |
| 20260508043050 | 48 | 180 | 1.0 | 4.0 | 0.00 | 0.00 | 0.00 | 86 | 1002.3 |
| 20260508041556 | 48 | 227 | 0.0 | 4.0 | 0.00 | 0.00 | 0.00 | 86 | 1002.2 |
| 20260508040054 | 48 | 227 | 2.0 | 8.0 | 0.00 | 0.00 | 0.00 | 87 | 1002.3 |
| 20260508034553 | 48 | 227 | 0.0 | 6.0 | 0.00 | 0.00 | 0.00 | 87 | 1002.4 |
| 20260508033047 | 48 | 180 | 0.0 | 3.0 | 0.00 | 0.00 | 0.00 | 87 | 1002.3 |
| 20260508031556 | 48 | 176 | 3.0 | 8.0 | 0.00 | 0.00 | 0.00 | 87 | 1002.2 |
| 20260508030141 | 48 | 235 | 1.0 | 7.0 | 0.00 | 0.00 | 0.00 | 87 | 1002.2 |
| 20260508024541 | 48 | 188 | 3.0 | 11.0 | 0.00 | 0.00 | 0.00 | 88 | 1002.3 |
| 20260508023043 | 48 | 235 | 0.0 | 7.0 | 0.00 | 0.00 | 0.00 | 88 | 1002.6 |
| 20260508021538 | 48 | 286 | 2.0 | 11.0 | 0.00 | 0.00 | 0.00 | 88 | 1002.2 |
| 20260508020035 | 49 | 192 | 0.0 | 6.0 | 0.00 | 0.00 | 0.00 | 88 | 1002.6 |
| 20260508013033 | 49 | 238 | 1.0 | 8.0 | 0.00 | 0.00 | 0.00 | 87 | 1002.6 |
| 20260508011533 | 49 | 144 | 1.0 | 9.0 | 0.00 | 0.00 | 0.00 | 87 | 1002.5 |
| 20260508010039 | 49 | 142 | 0.0 | 12.0 | 0.00 | 0.00 | 0.00 | 88 | 1002.4 |
| 20260508004525 | 50 | 211 | 4.0 | 10.0 | 0.00 | 0.00 | 0.00 | 88 | 1002.3 |
| 20260508003024 | 50 | 207 | 4.0 | 10.0 | 0.00 | 0.00 | 0.00 | 89 | 1002.2 |
| 20260508001531 | 50 | 221 | 4.0 | 9.0 | 0.00 | 0.00 | 0.00 | 89 | 1002.1 |
| 20260508000021 | 50 | 196 | 2.0 | 7.0 | 0.00 | 0.00 | 0.00 | 89 | 1002.0 |
| 20260507234519 | 52 | 211 | 0.0 | 3.0 | 0.00 | 0.00 | 0.00 | 92 | 1001.5 |
| 20260507233015 | 52 | 211 | 0.0 | 3.0 | 0.00 | 0.00 | 0.00 | 89 | 1001.5 |
| 20260507231514 | 52 | 210 | 1.0 | 6.0 | 0.00 | 0.00 | 0.00 | 89 | 1001.4 |
| 20260507230014 | 53 | 209 | 1.0 | 5.0 | 0.00 | 0.00 | 0.00 | 89 | 1001.5 |
| 20260507224512 | 53 | 202 | 1.0 | 4.0 | 0.00 | 0.00 | 0.00 | 89 | 1001.5 |
| 20260507223012 | 53 | 193 | 1.0 | 5.0 | 0.00 | 0.00 | 0.00 | 89 | 1001.5 |
| 20260507221518 | 53 | 200 | 0.0 | 5.0 | 0.00 | 0.00 | 0.00 | 89 | 1001.6 |
| 20260507220013 | 53 | 203 | 1.0 | 5.0 | 0.00 | 0.00 | 0.00 | 89 | 1001.6 |
| 20260507214510 | 53 | 221 | 2.0 | 8.0 | 0.00 | 0.00 | 0.00 | 89 | 1001.5 |
| 20260507213018 | 53 | 222 | 1.0 | 4.0 | 0.00 | 0.00 | 0.00 | 90 | 1001.7 |
| 20260507211509 | 53 | 191 | 0.0 | 5.0 | 0.00 | 0.00 | 0.00 | 89 | 1001.7 |
| 20260507210122 | 52 | 242 | 1.0 | 8.0 | 0.00 | 0.00 | 0.00 | 89 | 1001.8 |
| 20260507204505 | 53 | 232 | 0.0 | 2.0 | 0.00 | 0.00 | 0.00 | 89 | 1001.6 |
| 20260507203013 | 53 | 232 | 0.0 | 3.0 | 0.00 | 0.00 | 0.00 | 89 | 1001.4 |
| 20260507201513 | 53 | 232 | 0.0 | 5.0 | 0.00 | 0.00 | 0.00 | 88 | 1001.7 |
| 20260507200110 | 53 | 247 | 1.0 | 5.0 | 0.00 | 0.00 | 0.00 | 88 | 1002.2 |
| 20260507194557 | 53 | 246 | 2.0 | 7.0 | 0.00 | 0.00 | 0.00 | 88 | 1003.3 |
| 20260507193116 | 54 | 244 | 2.0 | 7.0 | 0.00 | 0.00 | 0.00 | 88 | 1003.6 |
| 20260507191559 | 54 | 246 | 2.0 | 9.0 | 0.00 | 0.00 | 0.00 | 87 | 1003.5 |
| 20260507190051 | 55 | 256 | 0.0 | 9.0 | 0.00 | 0.00 | 0.00 | 87 | 1003.8 |
| 20260507184549 | 55 | 262 | 1.0 | 9.0 | 0.00 | 0.00 | 0.00 | 87 | 1003.8 |
| 20260507183057 | 56 | 275 | 3.0 | 17.0 | 0.00 | 0.00 | 0.00 | 86 | 1004.0 |